Volver al catálogo

COSMOS 1805

ActivoMilitarPO
NORAD 17191·PAYLOAD·🇷🇺 Russia

Lanzado Dec 10, 1986 desde Plesetsk Cosmodrome

Loading…

Próximos Pases (próximas 24 horas)

TLE

ActualizadoSource: Space-Track

Época: Sep 14, 2026, 13:16 UTC

1 17191U 86097A   26257.55309049  .00019663  00000-0  29024-3 0  9991
2 17191  82.4524 257.2395 0003709 133.0451 227.1114 15.55208673176414

Sigue COSMOS 1805 en tiempo real con AllMySat

Download on the App Store